Location: Çetinkaya Yaylas?
(38.8490°N, 31.9910°E)
Time: 10:11:48
(UTC+00:00)

Daily predictions for brighter satellites

Satellite Brightness Start Highest point End
(mag) Time Altitude Azimuth Time Altitude Azimuth Time Altitude Azimuth
Meteor 2-1 Rocket 4.3 17:17:07 10° S 17:22:41 60° E 17:28:10 10° NNE
ATLAS 3B R/B 3.1 17:16:34 10° NNW 17:24:15 64° NE 17:31:24 10° SE
Cosmos 2100 Rocket 4.1 17:20:54 10° S 17:26:58 58° E 17:33:08 10° NNE
SL-4 R/B 2.3 17:25:06 10° WNW 17:28:50 56° SW 17:32:38 10° SE
Gbstr 26 Del rocket 4.3 17:26:03 10° NW 17:31:02 38° NNE 17:35:10 10° E
ERS-1 Rocket 3.7 17:29:39 10° SE 17:34:13 37° ENE 17:38:48 10° N
ASTEX 1 3.4 17:29:54 10° SSE 17:34:47 66° E 17:39:42 10° N
Meteor 2-3 Rocket 3.8 17:29:27 10° N 17:35:03 62° E 17:40:40 10° SSE
SL-24 R/B 4.4 17:31:16 10° NNE 17:35:34 55° E 17:40:23 10° S
Cosmos 909 Rocket 4.5 17:32:03 10° S 17:38:03 39° ESE 17:43:49 10° NE
CSL-04 Debris 4.2 17:34:24 10° SSE 17:39:48 74° ENE 17:45:14 10° N
Okean O Rocket 3.4 17:38:33 10° ESE 17:41:03 15° ENE 17:43:33 10° NNE
Cosmos 1455 Rocket 3.6 17:38:00 10° SSE 17:42:06 40° E 17:46:12 10° NNE
SJ 16-02 4.1 17:42:35 10° WNW 17:44:42 14° W 17:46:49 10° SW
Cosmos 1892 Rocket 4.4 17:42:56 10° NNE 17:46:48 31° ENE 17:50:04 13° SE
Cosmos 2082 Rocket 2.4 17:41:57 10° S 17:47:28 53° ESE 17:53:00 10° NNE
Cosmos 1461 4.2 17:49:29 14° SE 17:50:19 15° ESE 17:52:32 10° ENE
Cosmos 968 Rocket 3.7 17:47:27 10° NNW 17:52:42 76° WSW 17:57:53 10° S
Okean 1 Rocket 3.4 17:48:54 10° SSW 17:53:16 71° W 17:57:41 10° N
PAYLOAD B 4.4 17:47:55 10° SSE 17:53:18 60° ENE 17:58:45 10° N
NOSS 3-3 (A) 3.6 17:49:06 10° SSW 17:53:54 57° ESE 17:59:27 10° NE
GEOS 3 Rocket 3.7 17:51:43 13° SE 17:56:30 73° NE 18:01:52 10° NNW
Cosmos 1725 Rocket 4.0 17:50:39 10° S 17:56:48 62° E 18:02:56 10° NNE
Cosmos 2228 3.5 17:56:23 11° SSE 18:00:01 37° E 18:03:49 10° NNE
Okean-O 3.9 17:57:49 15° ESE 18:00:15 24° ENE 18:03:46 10° NNE
Cosmos 1452 Rocket 3.8 17:55:25 10° SSW 18:00:37 71° WNW 18:05:51 10° NNE
BREEZE-M DEB (TANK) 3.3 17:55:38 10° SW 18:04:02 56° SSE 18:06:54 10° ENE
Meteor 1-27 4.2 17:59:18 10° S 18:04:54 69° E 18:10:29 10° NNE
Cosmos 1697 Rocket 3.4 18:00:03 10° NNW 18:05:28 51° WSW 18:10:51 10° S
Cosmos 1741 Rocket 4.0 18:02:02 10° NNW 18:07:22 86° ENE 18:11:57 14° SSE
ADEOS 3.7 18:03:20 14° SSE 18:07:39 58° ENE 18:12:45 10° N
IRAS Rocket 4.3 18:02:38 10° SSE 18:08:06 81° WSW 18:13:37 10° NNW
USA 186 3.4 18:08:52 15° ENE 18:08:58 15° ENE 18:10:39 10° NNE
Cosmos 1302 Rocket 3.9 18:05:56 10° SSW 18:11:05 86° ESE 18:16:18 10° NNE
Cosmos 2016 Rocket 3.9 18:05:57 10° S 18:12:12 75° E 18:18:24 10° N
Cosmos 2173 Rocket 4.5 18:06:37 10° SSW 18:12:39 62° W 18:18:49 10° N
CZ-4C R/B 4.1 18:09:41 10° W 18:13:10 26° NW 18:17:22 10° NNE
ISS -0.7 18:12:04 10° WNW 18:14:07 15° NNW 18:16:10 10° NNE
SL-16 R/B 3.9 18:14:29 10° N 18:18:32 20° NE 18:21:28 14° E
Cosmos 2084 Rocket 4.2 18:16:56 10° NNW 18:20:54 38° NE 18:22:53 24° ESE
BREEZE-M DEB 3.9 18:16:00 10° SW 18:21:12 48° SE 18:26:11 10° ENE
USA 305 2.8 18:18:23 10° NW 18:22:25 59° NE 18:23:56 31° ESE
NOSS 3-3 (C) 3.5 18:20:00 10° SSW 18:24:59 84° ESE 18:30:50 10° NE
COSMOS 2406 3.4 18:19:42 10° S 18:25:13 50° ESE 18:30:44 10° NNE
SL-08 R/B 3.2 18:22:15 10° NNE 18:27:05 87° ESE 18:31:46 10° SSW
Meteor 1-31 Rocket 4.3 18:24:58 10° SSW 18:28:00 28° W 18:31:03 10° NW
DELTA 2 R/B (1) 3.6 18:22:44 10° W 18:28:20 86° N 18:33:13 14° E
Terra 2.0 18:27:23 15° S 18:31:15 67° W 18:35:57 10° NNW
Meteor 2-12 Rocket 4.4 18:26:56 10° N 18:33:01 71° E 18:37:04 22° SSE
Cosmos 1980 Rocket 2.4 18:30:19 10° NNW 18:35:58 67° WSW 18:39:50 21° S
MetOp-B 4.4 18:32:28 15° S 18:36:58 66° WSW 18:42:18 10° NNW
CZ-4 R/B 3.3 18:35:15 10° SSW 18:38:12 23° W 18:41:09 10° NW
BREEZE-M DEB (TANK) 4.3 18:34:23 10° WNW 18:38:17 44° SSW 18:44:47 21° SSE
YAOGAN 11 4.0 18:37:01 10° NNE 18:41:28 81° ESE 18:44:34 20° S
Cosmos 2061 Rocket 3.9 18:36:29 12° S 18:42:16 81° E 18:48:33 10° N
Cosmos 2333 Rocket 3.5 18:39:05 10° N 18:43:54 27° ENE 18:46:04 21° E
Cosmos 1743 3.4 18:41:13 10° NNW 18:44:01 37° W 18:45:16 24° SW
Cosmos 1933 4.0 18:44:27 32° E 18:44:27 32° E 18:47:35 10° NNE
Delta 2 Rocket 4.0 18:47:17 10° WSW 18:48:59 26° SW 18:48:59 26° SW
Cosmos 1375 Rocket 4.4 18:45:51 10° SSW 18:52:15 73° ESE 18:58:47 10° NNE
SPOT 3 Rocket 3.9 18:52:55 36° ESE 18:54:26 47° ENE 18:59:21 10° N
Cosmos 1782 4.4 18:52:00 10° SW 18:55:04 28° WNW 18:58:09 10° NNW
CZ-4B R/B 4.1 18:51:37 15° S 18:56:08 47° W 19:01:34 10° NNW
Ariane Rocket 3.6 18:57:02 34° E 18:58:10 39° ENE 19:02:49 10° N
Cosmos 2098 Rocket 4.1 18:58:41 33° E 18:58:41 33° E 19:02:38 10° NNE
Cosmos 1626 Rocket 3.6 18:54:15 10° N 18:58:35 62° E 18:59:19 53° SE
Cosmos 2360 Rocket 3.7 18:57:31 10° N 19:01:52 22° NE 19:03:37 19° E
Spot 2 Rocket 3.7 19:01:12 30° S 19:03:35 65° W 19:08:35 10° NNW
Cosmos 220 Rocket 4.1 19:04:06 51° ENE 19:04:06 51° ENE 19:07:38 10° NNE
Chandra Rocket (1) 4.0 18:45:45 10° W 19:07:07 47° SSW 19:09:56 35° SSE
ATLAS 3B R/B 4.4 19:08:22 10° NW 19:14:22 26° WSW 19:19:24 12° SSW
Longmarch 3A Rocket 4.4 19:14:18 10° SW 19:14:43 11° SW 19:14:43 11° SW
Cosmos 2219 Rocket 4.0 19:12:07 10° N 19:15:55 18° NE 19:17:33 16° ENE
Okean O Rocket 2.4 19:15:30 33° SW 19:16:50 44° W 19:20:57 10° NNW
Gbstr 26 Del rocket 3.7 19:12:59 10° WNW 19:17:27 40° SW 19:17:40 40° SW
Cosmos 2151 2.8 19:17:11 10° N 19:21:10 79° NE 19:21:10 79° NE
Cosmos 1891 Rocket 4.4 19:20:41 35° S 19:23:30 86° W 19:29:35 10° N
Cosmos 1461 4.1 19:22:50 10° WSW 19:26:16 36° NW 19:29:42 10° NNE
CZ-4B R/B 3.1 19:27:58 73° SE 19:28:21 81° ENE 19:33:10 10° NNW
Cosmos 2322 Rocket 2.8 19:27:51 10° N 19:33:12 41° ENE 19:33:58 39° E
Okean 1-7 Rocket 4.3 19:29:53 10° N 19:33:33 42° NE 19:33:33 42° NE
Cosmos 1437 Rocket 3.7 19:36:11 38° WNW 19:36:11 38° WNW 19:39:28 10° N
Okean-O 4.2 19:35:08 24° SW 19:36:23 28° W 19:40:09 10° NW
Milstar 3 4.2 19:31:48 10° WSW 19:37:46 27° SSW 19:37:46 27° SSW
USA 186 4.5 19:38:59 13° WNW 19:38:59 13° WNW 19:39:46 10° WNW
Cosmos 1777 Rocket 4.5 19:33:52 10° N 19:38:53 46° ENE 19:39:00 46° ENE
IRS-1C Rocket 4.0 19:39:14 68° S 19:39:56 83° WSW 19:45:14 10° NNW
Nadezhda 4 Rocket 3.9 19:41:07 10° N 19:47:13 66° E 19:47:52 62° ESE
Meteor 2-10 4.1 19:48:43 10° N 19:54:27 75° E 19:54:40 74° ESE
Cosmos 1486 Rocket 3.9 19:51:53 10° NNW 19:57:02 78° NE 19:57:02 78° NE
Cosmos 2278 3.5 19:52:20 10° NNW 19:58:04 88° WSW 19:58:19 83° S
Meteor 1-5 Rocket 4.1 19:52:51 10° N 19:58:40 89° E 19:59:05 79° SSE
SL-16 R/B 2.3 19:57:28 10° NNW 20:03:04 62° WSW 20:03:19 61° WSW
Cosmos 2195 Rocket 4.5 19:59:17 10° N 20:05:27 62° E 20:05:36 62° E
Cosmos 1825 Rocket 4.3 20:04:33 10° N 20:07:46 49° N 20:07:46 49° N
Cosmos 2026 Rocket 4.2 20:03:58 10° N 20:10:14 57° E 20:10:24 57° E
DELTA 2 R/B (1) 3.7 20:09:13 10° W 20:13:55 64° W 20:13:55 64° W
Cosmos 540 Rocket 3.7 20:18:42 66° N 20:18:42 66° N 20:23:11 10° NNE
Cosmos 2333 Rocket 3.0 20:22:56 10° NW 20:28:05 42° W 20:28:05 42° W
Cosmos 2297 Rocket 4.4 20:35:26 14° ENE 20:35:26 14° ENE 20:36:35 10° ENE
ARIANE 5 R/B 4.5 20:34:30 24° NE 20:34:30 24° NE 20:36:55 10° N
NOSS 3-4 (A) 3.8 20:26:54 10° NW 20:33:59 83° WSW 20:34:49 73° S
NOSS 3-4 (C) 3.8 20:27:31 10° NW 20:34:38 83° WSW 20:35:28 73° S
USA 234 3.4 20:39:27 10° NE 20:44:47 57° E 20:44:47 57° E
Cosmos 2360 Rocket 2.8 20:40:40 10° NNW 20:45:21 49° WNW 20:45:21 49° WNW
Cosmos 1092 Rocket 4.0 20:49:53 10° N 20:55:38 71° WNW 20:55:38 71° WNW
Cosmos 2219 Rocket 2.7 20:54:44 10° NNW 20:59:14 54° NW 20:59:14 54° NW
Cosmos 2322 Rocket 3.8 21:12:19 10° NW 21:15:45 24° W 21:15:45 24° W
Cosmos 841 Rocket 4.5 21:29:05 44° N 21:29:05 44° N 21:32:44 10° NNE
Cosmos 2279 Rocket 4.4 21:29:54 56° WNW 21:29:54 56° WNW 21:35:37 10° N
Cosmos 2237 Rocket 3.5 21:30:35 10° N 21:35:34 31° ENE 21:35:41 31° ENE
CZ-2C R/B 3.7 21:37:19 37° NE 21:37:19 37° NE 21:41:15 10° N
Meteor 1-11 Rocket 4.3 21:34:33 10° N 21:38:54 52° NNE 21:38:54 52° NNE
Cosmos 2227 Rocket 3.9 21:44:30 24° ENE 21:44:30 24° ENE 21:47:23 10° NE
COSMOS 2428 3.3 21:38:33 10° NNW 21:42:51 53° NNW 21:42:51 53° NNW
ACS3 Solar Sail 3.2 21:41:00 10° NE 21:45:00 25° ENE 21:45:00 25° ENE
Cosmos 2263 Rocket 4.1 21:56:11 19° ENE 21:56:11 19° ENE 21:58:40 10° NE
Meteor 1-27 Rocket 4.2 21:56:56 58° NNE 21:56:56 58° NNE 22:01:32 10° N
Cosmos 2266 Rocket 4.3 21:58:18 10° NNW 22:03:14 58° NW 22:03:14 58° NW
Iridium 4 Rocket 4.4 22:11:57 48° NE 22:11:57 48° NE 22:16:34 10° N
Cosmos 2297 Rocket 2.9 22:17:12 49° NNW 22:17:12 49° NNW 22:21:50 10° NNE
CZ-2C R/B 4.0 22:16:19 10° N 22:21:10 47° NW 22:21:10 47° NW
Cosmos 1655 Rocket 4.1 22:21:04 10° N 22:26:42 74° N 22:26:42 74° N
USA 234 4.4 22:22:46 10° NE 22:28:42 38° NNW 22:32:06 23° W
SeaSat 1 3.3 22:34:43 47° NNE 22:34:43 47° NNE 22:38:27 10° NNW
Meteor 2-10 Rocket 4.0 22:36:19 10° N 22:40:59 63° N 22:40:59 63° N
Meteor 1-18 Rocket 4.5 22:49:51 64° N 22:49:51 64° N 22:54:36 10° N
Cosmos 1244 Rocket 4.4 22:49:05 10° N 22:55:00 80° NE 22:55:00 80° NE
Meteor 2-11 Rocket 4.5 22:51:57 10° N 22:57:32 72° NW 22:57:32 72° NW
Lacrosse 4 Rocket 3.6 23:01:08 20° NNW 23:01:08 20° NNW 23:03:02 10° N
Cosmos 2219 3.8 23:04:46 48° E 23:04:46 48° E 23:09:42 10° NE
SL-16 R/B 3.0 23:01:44 10° N 23:07:12 46° ENE 23:08:40 38° ESE
Cosmos 489 Rocket 4.3 23:12:33 84° WSW 23:12:40 85° WNW 23:19:03 10° NNE
IDEFIX/ARIANE 42P 3.1 23:07:58 10° NNE 23:12:47 49° E 23:12:47 49° E
Cosmos 1151 Rocket 4.3 23:15:33 38° N 23:15:33 38° N 23:18:17 10° N
S3M 4.3 23:14:46 53° ESE 23:15:30 57° E 23:21:31 10° NNE
CZ-2C R/B 4.5 23:18:46 19° WNW 23:18:46 19° WNW 23:20:50 10° NW
NPP 4.4 23:13:11 10° NNE 23:18:17 42° E 23:18:30 42° ESE
Cosmos 2237 Rocket 3.6 23:14:28 10° NW 23:17:27 27° WNW 23:17:27 27° WNW
CENTAUR R/B 3.5 23:20:15 28° ESE 23:20:20 28° ESE 23:25:26 10° NE
Cosmos 2227 Rocket 3.1 23:26:17 37° WNW 23:26:24 37° WNW 23:31:38 10° N
ACS3 Solar Sail 2.3 23:22:46 10° N 23:28:22 44° WNW 23:28:30 44° WNW
Cosmos 2263 Rocket 2.7 23:37:50 46° WNW 23:37:58 46° WNW 23:43:20 10° N
BREEZE-M DEB (TANK) 4.4 23:30:16 10° W 23:41:37 40° NNW 23:45:34 10° NE
MSX 3.7 23:43:06 10° N 23:48:53 78° WNW 23:49:33 68° SW
Cosmos 1709 Rocket 4.0 23:43:34 10° N 23:49:46 79° E 23:51:40 48° SSE
Cosmos 1943 4.4 23:47:36 10° N 23:52:54 40° ENE 23:58:07 10° SE
Cosmos 1666 Rocket 4.2 23:49:05 10° N 23:53:25 50° E 23:54:01 46° ESE
